Regional Weather Roundup
Issued by NWS

Home | Current Version | Previous Version | Graphics & Text | Print | Product List | Glossary On
Versions: 1 2 3 4 5 6 7 8 9 10 11 12 13 14 15 16 17 18 19 20 21 22 23 24 25 26 27 28 29 30 31 32 33 34 35 36 37 38 39 40 41 42 43 44 45 46 47 48 49 50
000
ASUS43 KOAX 040610
RWRNE

WEATHER ROUNDUP FOR NEBRASKA
NATIONAL WEATHER SERVICE OMAHA NE
100 AM CDT WED MAY 04 2016

NOTES: SATELLITE DATA IS BEING USED TO AUGMENT CLOUD COVER ABOVE
       12000 FEET.
       "FAIR" INDICATES FEW OR NO CLOUDS BELOW 12,000 FEET WITH NO
       SIGNIFICANT WEATHER AND/OR OBSTRUCTIONS TO VISIBILITY.

  * THESE STATIONS DO NOT REPORT WEATHER SUCH AS RAIN...SNOW OR FOG.

NEZ001>004-019>022-054>056-040700-
NEBRASKA PANHANDLE

CITY           SKY/WX    TMP DP  RH WIND       PRES   REMARKS
SCOTTSBLUFF    CLEAR     49  40  71 N5        30.18R
6HR MIN TEMP:  47; 6HR MAX TEMP:  73;

ALLIANCE       CLEAR     39  36  89 W6        30.15R WCI  35
6HR MIN TEMP:  38; 6HR MAX TEMP:  68;

CHADRON        CLEAR     44  41  89 SW7       30.14R
6HR MIN TEMP:  44; 6HR MAX TEMP:  73;

KIMBALL        CLEAR     42  38  85 W8        30.21S
SIDNEY         CLEAR     41  36  82 NW9       30.19R
6HR MIN TEMP:  40; 6HR MAX TEMP:  68;

$$

NEZ057>060-069>072-079>082-040700-
SOUTHWEST NEBRASKA

CITY           SKY/WX    TMP DP  RH WIND       PRES   REMARKS
NORTH PLATTE   CLEAR     42  38  85 NW7       30.07S
6HR MIN TEMP:  42; 6HR MAX TEMP:  69;

IMPERIAL       CLEAR     49  37  63 NW6       30.12R
6HR MIN TEMP:  49; 6HR MAX TEMP:  69;

LEXINGTON      CLEAR     46  41  83 W8        30.04S
MCCOOK         CLEAR     47  39  74 W8        30.07S
6HR MIN TEMP:  44; 6HR MAX TEMP:  68;

OGALLALA       CLEAR     43  37  80 W7        30.12S
$$

NEZ005>010-023>029-035>040-094-040700-
NORTH CENTRAL NEBRASKA

CITY           SKY/WX    TMP DP  RH WIND       PRES   REMARKS
VALENTINE      CLEAR     48  40  73 NW8       30.06R
6HR MIN TEMP:  48; 6HR MAX TEMP:  71;

AINSWORTH      CLEAR     51  41  69 N9        30.04R
BROKEN BOW     CLEAR     56  40  55 NW14      30.01S
6HR MIN TEMP:  51; 6HR MAX TEMP:  69; 6HR PCP: TRACE;

O`NEILL        CLEAR     49  41  73 NW6       30.00S
ORD            CLEAR     49  43  80 NW7       29.99R
6HR MIN TEMP:  49; 6HR MAX TEMP:  68;

THEDFORD       CLEAR     49  42  75 W8        30.07S
$$

NEZ041-046>049-061>064-073>077-083>087-040700-
SOUTH CENTRAL NEBRASKA

CITY           SKY/WX    TMP DP  RH WIND       PRES   REMARKS
GRAND ISLAND   CLEAR     52  43  71 W8        29.97R
6HR MIN TEMP:  52; 6HR MAX TEMP:  68;

AURORA         CLEAR     53  44  73 W12       29.95R
HASTINGS       CLEAR     53  43  68 W9        29.97F
6HR MIN TEMP:  52; 6HR MAX TEMP:  68;

HEBRON         CLEAR     53  45  74 CALM      29.95F
HOLDREGE       CLEAR     53  40  61 W7        30.02S
KEARNEY *      CLEAR     52  39  62 NW7       30.00S
YORK           CLEAR     54  45  71 W10       29.94R
$$

NEZ011>018-030>034-042>045-040700-
NORTHEAST NEBRASKA

CITY           SKY/WX    TMP DP  RH WIND       PRES   REMARKS
NORFOLK        CLEAR     54  40  59 N9        29.94R
6HR MIN TEMP:  54; 6HR MAX TEMP:  69;

ALBION         CLEAR     53  43  69 N3        29.97R
BLAIR          CLEAR     59  44  58 N10       29.88R
COLUMBUS *     CLEAR     54  39  58 NW9       29.94R
FREMONT        CLEAR     56  44  64 NW8       29.90R
TEKAMAH        PTCLDY    54  44  69 N12       29.89R
6HR MIN TEMP:  54; 6HR MAX TEMP:  69;

WAYNE          CLEAR     48  41  75 N3        29.94R
$$

NEZ050>053-065>068-078-088>093-040700-
SOUTHEAST NEBRASKA

CITY           SKY/WX    TMP DP  RH WIND       PRES   REMARKS
LINCOLN        CLEAR     59  44  57 NW10      29.91S
6HR MIN TEMP:  58; 6HR MAX TEMP:  71;

OMAHA EPPLEY   PTCLDY    60  45  57 NW16      29.86R
6HR MIN TEMP:  59; 6HR MAX TEMP:  71;

BEATRICE       CLEAR     55  45  68 W10       29.91F
FALLS CITY     CLEAR     58  43  57 W14       29.87F
6HR MIN TEMP:  57; 6HR MAX TEMP:  68;

NEBRASKA CITY  CLEAR     56  43  62 W12       29.86F
PLATTSMOUTH    CLEAR     59  46  61 W12       29.86S
$$

NEZ044-045-051>053-067-040700-
OMAHA AREA

CITY           SKY/WX    TMP DP  RH WIND       PRES   REMARKS
OMAHA EPPLEY   PTCLDY    60  45  57 NW16      29.86R
6HR MIN TEMP:  59; 6HR MAX TEMP:  71;

BLAIR          CLEAR     59  44  58 N10       29.88R
FREMONT        CLEAR     56  44  64 NW8       29.90R
MILLARD        CLEAR     62  45  53 NW13G20   29.88R
OFFUTT AFB     CLEAR     57  46  68 NW10      29.86R
PLATTSMOUTH    CLEAR     59  46  61 W12       29.86S
WAHOO          FAIR      60  44  55 NW15G21   29.90R
$$




USA.gov is the U.S. government's official web portal to all federal, state and local government web resources and services.